Burlington, CO

8:03 AM MDT on August 26, 2016 (GMT -0600)
Kit Carson County

Weather History for KITR - March, 2013

Change the Weather History Date:

Friday, March 29, 2013

  Actual Average Record
Temperature  
Mean Temperature 52 °F 43 °F  
Max Temperature 68 °F 58 °F 87 °F (1943)
Min Temperature 35 °F 29 °F 2 °F (1987)
Degree Days  
Heating Degree Days 14    
Growing Degree Days 2 (Base 50)    
Moisture  
Dew Point 38 °F    
Average Humidity 62    
Maximum Humidity 89    
Minimum Humidity 31    
Precipitation  
Precipitation 0.00 in 0.04 in 0.91 in (1981)
Month to date precipitation 0.71 0.82  
Year to date precipitation 1.20 1.62  
Sea Level Pressure  
Sea Level Pressure 30.03 in    
Wind  
Wind Speed 10 mph (SW)    
Max Wind Speed 13 mph    
Max Gust Speed 20 mph    
Visibility 10 miles    
Events      
T = Trace of Precipitation, MM = Missing Value Source: NWS Daily Summary

Daily Weather History Graph

Daily Weather History Graph

Search for Another Location

Airport or City:

Trip Planner

Search our weather history database for the weather conditions in past years. The results will help you decide how hot, cold, wet, or windy it might be!

Date:

Astronomy

Mar. 29, 2013 Rise Set
Actual Time 6:37 AM MDT 7:10 PM MDT
Civil Twilight 6:10 AM MDT 7:37 PM MDT
Nautical Twilight 5:39 AM MDT 8:09 PM MDT
Astronomical Twilight 5:06 AM MDT 8:41 PM MDT
Moon 10:11 PM MDT (3/29) 7:49 AM MDT (3/29)
Length of Visible Light 13h 26m
Length of Day
12h 32m
Waning Gibbous, 93% of the Moon is Illuminated
Mar 29
Waning Gibbous
Apr 2
Last Quarter
Apr 10
New
Apr 18
First Quarter
Apr 25
Full

Hourly Weather History & Observations

Time (MDT) Temp. Windchill Dew Point Humidity Pressure Visibility Wind Dir Wind Speed Gust Speed Precip Events Conditions
12:53 AM 37.9 °F - 32.0 °F 79% 30.09 in 10.0 mi North - - N/A   Clear
1:53 AM 37.0 °F 29.3 °F 32.0 °F 82% 30.09 in 10.0 mi South 11.5 mph - N/A   Clear
2:53 AM 37.9 °F 30.9 °F 33.1 °F 83% 30.08 in 10.0 mi South 10.4 mph - N/A   Clear
3:53 AM 35.1 °F 27.9 °F 32.0 °F 89% 30.08 in 10.0 mi SW 9.2 mph - N/A   Clear
4:53 AM 37.0 °F 29.3 °F 34.0 °F 89% 30.07 in 10.0 mi SSW 11.5 mph - N/A   Clear
5:53 AM 37.9 °F 31.5 °F 34.0 °F 86% 30.07 in 10.0 mi SSW 9.2 mph - N/A   Clear
6:53 AM 37.9 °F 30.9 °F 34.0 °F 86% 30.09 in 10.0 mi SSW 10.4 mph - N/A   Clear
7:53 AM 43.0 °F 38.2 °F 37.0 °F 80% 30.10 in 10.0 mi SSW 8.1 mph - N/A   Clear
8:53 AM 51.1 °F - 42.1 °F 71% 30.09 in 10.0 mi SSW 12.7 mph - N/A   Clear
9:53 AM 55.9 °F - 45.0 °F 67% 30.07 in 10.0 mi SSW 11.5 mph - N/A   Clear
10:53 AM 61.0 °F - 43.0 °F 52% 30.07 in 10.0 mi SSW 12.7 mph - N/A   Clear
11:53 AM 63.0 °F - 41.0 °F 45% 30.06 in 10.0 mi South 11.5 mph 16.1 mph N/A   Clear
12:53 PM 64.9 °F - 42.1 °F 43% 30.04 in 10.0 mi South 11.5 mph 19.6 mph N/A   Clear
1:53 PM 66.0 °F - 39.9 °F 38% 30.02 in 10.0 mi SW 12.7 mph - N/A   Clear
2:53 PM 66.9 °F - 37.9 °F 34% 29.98 in 10.0 mi South 10.4 mph - N/A   Clear
3:53 PM 68.0 °F - 39.0 °F 35% 29.97 in 10.0 mi South 11.5 mph - N/A   Clear
4:53 PM 66.9 °F - 37.9 °F 34% 29.95 in 10.0 mi South 10.4 mph - N/A   Clear
5:53 PM 66.9 °F - 35.1 °F 31% 29.95 in 10.0 mi West 6.9 mph - N/A   Clear
6:53 PM 60.1 °F - 39.9 °F 47% 29.96 in 10.0 mi West 6.9 mph - N/A   Clear
7:53 PM 52.0 °F - 39.0 °F 61% 29.97 in 10.0 mi WSW 5.8 mph - N/A   Clear
8:53 PM 57.0 °F - 36.0 °F 45% 29.98 in 10.0 mi SSW 3.5 mph - N/A   Clear
9:53 PM 50.0 °F - 39.9 °F 68% 30.00 in 10.0 mi West 5.8 mph - N/A   Overcast
10:53 PM 48.9 °F - 37.9 °F 66% 29.99 in 10.0 mi West 6.9 mph - N/A   Mostly Cloudy
11:53 PM 48.0 °F - 37.0 °F 66% 29.98 in 10.0 mi NW 6.9 mph - N/A   Mostly Cloudy